THY2474 LTFM-LTDB

Flight info

Callsign THY2474
Flight time 1h 4m
Altitude 37000
Route VICEN1E/36 VICEN UT57 VEVUD UT341 BAG UW75 AZBUL UL601 URGUP UW75 KEMER
Aircraft A319/M-SDE3FGHIRWY/LB1

Departure

Time 2026-04-14 13:28
Airport İstanbul Airport (LTFM)

Arrival

Time 2026-04-14 14:33
Airport Çukurova International Airport (LTDB)
Time Latitude Longitude Altitude Speed Heading
2026-04-14 12:59 41.26390 28.74912 331 ft 0 kts 287°
2026-04-14 13:20 41.26383 28.74941 330 ft 4 kts 285°
2026-04-14 13:20 41.26377 28.74976 333 ft 4 kts 281°
2026-04-14 13:20 41.26373 28.75011 332 ft 4 kts 266°
2026-04-14 13:21 41.26380 28.75041 331 ft 4 kts 212°
2026-04-14 13:21 41.26384 28.75045 331 ft 0 kts 197°
2026-04-14 13:25 41.26372 28.75040 332 ft 3 kts 197°
2026-04-14 13:26 41.26264 28.75016 333 ft 7 kts 152°
2026-04-14 13:26 41.26243 28.75080 334 ft 9 kts 90°
2026-04-14 13:26 41.26245 28.75186 334 ft 14 kts 89°
2026-04-14 13:26 41.26246 28.75310 334 ft 15 kts 89°
2026-04-14 13:27 41.26248 28.75451 334 ft 17 kts 89°
2026-04-14 13:27 41.26250 28.75597 334 ft 14 kts 89°
2026-04-14 13:27 41.26269 28.75664 334 ft 6 kts 357°
2026-04-14 13:27 41.26298 28.75659 332 ft 0 kts 356°
2026-04-14 13:28 41.26378 28.75657 332 ft 39 kts
2026-04-14 13:28 41.26870 28.75653 330 ft 100 kts 359°
2026-04-14 13:28 41.27761 28.75648 354 ft 153 kts
2026-04-14 13:28 41.28814 28.75667 1020 ft 150 kts
2026-04-14 13:29 41.29851 28.75775 1670 ft 152 kts 22°
2026-04-14 13:29 41.30728 28.76650 2094 ft 165 kts 43°
2026-04-14 13:29 41.31676 28.77657 2564 ft 187 kts 32°
2026-04-14 13:29 41.32892 28.78591 2945 ft 216 kts 26°
2026-04-14 13:30 41.34298 28.79558 3493 ft 239 kts 24°
2026-04-14 13:30 41.35851 28.80612 4032 ft 263 kts 25°
2026-04-14 13:30 41.37270 28.82219 4702 ft 278 kts 50°
2026-04-14 13:30 41.38163 28.84527 5623 ft 286 kts 69°
2026-04-14 13:31 41.38418 28.87186 6462 ft 294 kts 89°
2026-04-14 13:31 41.38277 28.89913 7382 ft 299 kts 99°
2026-04-14 13:31 41.37433 28.92455 8017 ft 306 kts 128°
2026-04-14 13:31 41.35781 28.94175 8904 ft 299 kts 156°
2026-04-14 13:32 41.33803 28.94809 9929 ft 290 kts 179°
2026-04-14 13:32 41.31777 28.94796 10686 ft 299 kts 181°
2026-04-14 13:32 41.29621 28.94847 11052 ft 320 kts 179°
2026-04-14 13:32 41.27335 28.94933 11561 ft 334 kts 179°
2026-04-14 13:33 41.24981 28.95012 12230 ft 342 kts 180°
2026-04-14 13:33 41.22595 28.94939 13019 ft 343 kts 184°
2026-04-14 13:33 41.20213 28.94711 13865 ft 345 kts 186°
2026-04-14 13:33 41.17810 28.94423 14556 ft 349 kts 191°
2026-04-14 13:34 41.12935 28.94376 15904 ft 365 kts 169°
2026-04-14 13:34 41.10594 28.95792 16593 ft 378 kts 148°
2026-04-14 13:34 41.08729 28.98310 17249 ft 391 kts 125°
2026-04-14 13:35 41.07549 29.01587 17913 ft 397 kts 113°
2026-04-14 13:35 41.06503 29.04997 18586 ft 401 kts 113°
2026-04-14 13:35 41.05453 29.08427 19155 ft 405 kts 114°
2026-04-14 13:35 41.04379 29.11902 19718 ft 410 kts 114°
2026-04-14 13:36 41.03286 29.15412 20284 ft 414 kts 114°
2026-04-14 13:36 41.02175 29.18950 20846 ft 418 kts 115°
2026-04-14 13:36 41.01048 29.22529 21422 ft 423 kts 115°
2026-04-14 13:36 40.99911 29.26138 21964 ft 427 kts 115°
2026-04-14 13:37 40.98776 29.29743 22471 ft 432 kts 115°
2026-04-14 13:37 40.97613 29.33434 23006 ft 437 kts 115°
2026-04-14 13:37 40.96435 29.37167 23552 ft 441 kts 115°
2026-04-14 13:37 40.95247 29.40926 24038 ft 445 kts 115°
2026-04-14 13:38 40.94044 29.44723 24456 ft 450 kts 115°
2026-04-14 13:38 40.92826 29.48567 24857 ft 455 kts 115°
2026-04-14 13:38 40.91596 29.52447 25254 ft 460 kts 115°
2026-04-14 13:38 40.90347 29.56368 25633 ft 465 kts 115°
2026-04-14 13:39 40.89081 29.60331 26007 ft 471 kts 115°
2026-04-14 13:39 40.87801 29.64339 26402 ft 475 kts 115°
2026-04-14 13:39 40.86510 29.68380 26792 ft 480 kts 115°
2026-04-14 13:39 40.85204 29.72464 27183 ft 484 kts 115°
2026-04-14 13:40 40.83887 29.76578 27563 ft 489 kts 115°
2026-04-14 13:40 40.82556 29.80731 27943 ft 493 kts 115°
2026-04-14 13:40 40.81209 29.84917 28324 ft 498 kts 115°
2026-04-14 13:40 40.79850 29.89142 28720 ft 502 kts 115°
2026-04-14 13:41 40.78480 29.93405 29087 ft 506 kts 115°
2026-04-14 13:41 40.77117 29.97637 29440 ft 510 kts 115°
2026-04-14 13:41 40.75718 30.01963 29810 ft 515 kts 115°
2026-04-14 13:41 40.74304 30.06319 30173 ft 519 kts 116°
2026-04-14 13:42 40.72874 30.10714 30497 ft 523 kts 116°
2026-04-14 13:42 40.71431 30.15148 30820 ft 526 kts 116°
2026-04-14 13:42 40.69986 30.19593 31154 ft 528 kts 116°
2026-04-14 13:42 40.68533 30.24058 31477 ft 531 kts 116°
2026-04-14 13:43 40.66992 30.28484 31781 ft 531 kts 122°
2026-04-14 13:43 40.65065 30.32622 32070 ft 528 kts 131°
2026-04-14 13:43 40.62871 30.36389 32455 ft 525 kts 134°
2026-04-14 13:43 40.60628 30.40183 32921 ft 524 kts 134°
2026-04-14 13:44 40.58398 30.43969 33325 ft 524 kts 134°
2026-04-14 13:44 40.56190 30.47788 33755 ft 526 kts 130°
2026-04-14 13:44 40.54297 30.51934 34244 ft 532 kts 121°
2026-04-14 13:44 40.52846 30.56445 34689 ft 536 kts 111°
2026-04-14 13:45 40.51867 30.61182 35129 ft 536 kts 104°
2026-04-14 13:45 40.51033 30.65945 35638 ft 532 kts 104°
2026-04-14 13:45 40.50481 30.69069 35998 ft 528 kts 104°
2026-04-14 13:45 40.49358 30.75252 36717 ft 522 kts 105°
2026-04-14 13:46 40.48403 30.79834 37102 ft 518 kts 107°
2026-04-14 13:46 40.46234 30.88787 37204 ft 511 kts 110°
2026-04-14 13:47 40.43977 30.97620 37199 ft 510 kts 109°
2026-04-14 13:47 40.41812 31.06480 37195 ft 510 kts 108°
2026-04-14 13:48 40.39719 31.15330 37197 ft 510 kts 108°
2026-04-14 13:48 40.37745 31.24271 37192 ft 511 kts 102°
2026-04-14 13:49 40.36515 31.31846 37193 ft 511 kts 102°
2026-04-14 13:49 40.35042 31.40951 37186 ft 510 kts 102°
2026-04-14 13:50 40.33556 31.50051 37179 ft 510 kts 102°
2026-04-14 13:50 40.32065 31.59145 37172 ft 510 kts 102°
2026-04-14 13:51 40.30569 31.68239 37179 ft 510 kts 102°
2026-04-14 13:51 40.29063 31.77321 37177 ft 510 kts 102°
2026-04-14 13:52 40.27540 31.86399 37170 ft 510 kts 102°
2026-04-14 13:52 40.25952 31.95461 37172 ft 511 kts 104°
2026-04-14 13:53 40.24055 32.04355 37170 ft 511 kts 107°
2026-04-14 13:53 40.22002 32.13252 37172 ft 511 kts 107°
2026-04-14 13:54 40.19999 32.22169 37179 ft 511 kts 106°
2026-04-14 13:54 40.18057 32.31104 37180 ft 511 kts 106°
2026-04-14 13:55 40.16114 32.40035 37176 ft 510 kts 106°
2026-04-14 13:55 40.14149 32.48953 37180 ft 511 kts 106°
2026-04-14 13:56 40.12165 32.57875 37177 ft 511 kts 107°
2026-04-14 13:56 40.10174 32.66794 37178 ft 511 kts 106°
2026-04-14 13:57 40.07726 32.75437 37172 ft 509 kts 121°
2026-04-14 13:57 40.03585 32.82796 37162 ft 499 kts 140°
2026-04-14 13:58 39.98180 32.88232 37163 ft 486 kts 155°
2026-04-14 13:58 39.92443 32.92926 37172 ft 487 kts 155°
2026-04-14 13:59 39.86701 32.97629 37175 ft 488 kts 155°
2026-04-14 13:59 39.80944 33.02336 37175 ft 489 kts 155°
2026-04-14 14:00 39.75179 33.07020 37173 ft 488 kts 155°
2026-04-14 14:00 39.69416 33.11698 37177 ft 489 kts 155°
2026-04-14 14:01 39.63684 33.16358 37173 ft 490 kts 155°
2026-04-14 14:01 39.57903 33.21049 37171 ft 490 kts 154°
2026-04-14 14:02 39.52117 33.25719 37156 ft 490 kts 155°
2026-04-14 14:02 39.46322 33.30384 37165 ft 490 kts 155°
2026-04-14 14:03 39.40478 33.34901 37169 ft 488 kts 158°
2026-04-14 14:03 39.34516 33.39087 37174 ft 488 kts 158°
2026-04-14 14:04 39.28642 33.43549 37183 ft 491 kts 155°
2026-04-14 14:04 39.22831 33.48205 37184 ft 492 kts 155°
2026-04-14 14:05 39.17012 33.52846 37197 ft 492 kts 155°
2026-04-14 14:05 39.11170 33.57421 37201 ft 491 kts 156°
2026-04-14 14:06 39.05357 33.61920 37204 ft 491 kts 156°
2026-04-14 14:06 38.99494 33.66466 37177 ft 491 kts 155°
2026-04-14 14:07 38.93647 33.71010 37201 ft 492 kts 155°
2026-04-14 14:07 38.87785 33.75555 37208 ft 492 kts 155°
2026-04-14 14:08 38.81887 33.80108 36581 ft 498 kts 156°
2026-04-14 14:08 38.78919 33.82393 36106 ft 497 kts 156°
2026-04-14 14:08 38.75959 33.84671 35566 ft 497 kts 156°
2026-04-14 14:08 38.73003 33.86949 35044 ft 495 kts 156°
2026-04-14 14:09 38.70054 33.89227 34504 ft 494 kts 156°
2026-04-14 14:09 38.67115 33.91496 33936 ft 493 kts 156°
2026-04-14 14:09 38.64186 33.93757 33391 ft 490 kts 156°
2026-04-14 14:09 38.61269 33.96005 32859 ft 488 kts 156°
2026-04-14 14:10 38.58364 33.98235 32298 ft 486 kts 156°
2026-04-14 14:10 38.55509 34.00414 31771 ft 484 kts 156°
2026-04-14 14:10 38.52623 34.02613 31232 ft 482 kts 156°
2026-04-14 14:10 38.49747 34.04804 30734 ft 479 kts 156°
2026-04-14 14:11 38.46896 34.06973 30309 ft 475 kts 156°
2026-04-14 14:11 38.44065 34.09122 29818 ft 471 kts 156°
2026-04-14 14:11 38.41264 34.11248 29384 ft 466 kts 156°
2026-04-14 14:11 38.38492 34.13351 28949 ft 461 kts 155°
2026-04-14 14:12 38.35752 34.15433 28536 ft 457 kts 155°
2026-04-14 14:12 38.33032 34.17499 28122 ft 453 kts 155°
2026-04-14 14:12 38.30336 34.19546 27716 ft 449 kts 155°
2026-04-14 14:12 38.27661 34.21571 27309 ft 446 kts 155°
2026-04-14 14:13 38.25001 34.23577 26906 ft 443 kts 155°
2026-04-14 14:13 38.22357 34.25566 26500 ft 440 kts 154°
2026-04-14 14:13 38.19735 34.27541 26106 ft 437 kts 154°
2026-04-14 14:13 38.17127 34.29506 25680 ft 434 kts 154°
2026-04-14 14:14 38.14534 34.31459 25265 ft 432 kts 154°
2026-04-14 14:14 38.11952 34.33403 24832 ft 430 kts 154°
2026-04-14 14:14 38.09378 34.35338 24398 ft 429 kts 154°
2026-04-14 14:14 38.06846 34.37239 23967 ft 428 kts 154°
2026-04-14 14:15 38.04288 34.39159 23474 ft 425 kts 154°
2026-04-14 14:15 38.01755 34.41063 23033 ft 421 kts 153°
2026-04-14 14:15 37.99246 34.42944 22581 ft 417 kts 154°
2026-04-14 14:15 37.96762 34.44804 22112 ft 412 kts 154°
2026-04-14 14:16 37.94305 34.46642 21680 ft 408 kts 154°
2026-04-14 14:16 37.91876 34.48456 21242 ft 403 kts 154°
2026-04-14 14:16 37.89468 34.50255 20807 ft 400 kts 153°
2026-04-14 14:17 37.84733 34.53853 19940 ft 393 kts 153°
2026-04-14 14:17 37.82403 34.55634 19512 ft 390 kts 153°
2026-04-14 14:17 37.80115 34.57379 19089 ft 387 kts 153°
2026-04-14 14:17 37.77813 34.59133 18663 ft 385 kts 153°
2026-04-14 14:18 37.75522 34.60875 18204 ft 382 kts 153°
2026-04-14 14:18 37.73257 34.62596 17775 ft 378 kts 153°
2026-04-14 14:18 37.71012 34.64303 17348 ft 374 kts 152°
2026-04-14 14:18 37.68796 34.65985 16947 ft 370 kts 152°
2026-04-14 14:19 37.66601 34.67651 16537 ft 366 kts 152°
2026-04-14 14:19 37.64432 34.69295 16141 ft 362 kts 152°
2026-04-14 14:19 37.62285 34.70922 15740 ft 359 kts 152°
2026-04-14 14:19 37.60159 34.72554 15337 ft 357 kts 148°
2026-04-14 14:20 37.58174 34.74422 14943 ft 356 kts 144°
2026-04-14 14:20 37.56214 34.76313 14542 ft 353 kts 144°
2026-04-14 14:20 37.54269 34.78188 14157 ft 352 kts 144°
2026-04-14 14:20 37.52357 34.80035 13741 ft 350 kts 144°
2026-04-14 14:21 37.50426 34.81896 13341 ft 347 kts 144°
2026-04-14 14:21 37.48511 34.83741 12954 ft 345 kts 144°
2026-04-14 14:21 37.46607 34.85572 12558 ft 345 kts 144°
2026-04-14 14:21 37.44696 34.87410 12159 ft 345 kts 144°
2026-04-14 14:22 37.42788 34.89244 11761 ft 343 kts 143°
2026-04-14 14:22 37.40905 34.91055 11548 ft 335 kts 143°
2026-04-14 14:22 37.39098 34.92794 11170 ft 330 kts 143°
2026-04-14 14:22 37.37283 34.94538 10709 ft 326 kts 143°
2026-04-14 14:23 37.35496 34.96252 10174 ft 321 kts 143°
2026-04-14 14:23 37.33732 34.97942 9560 ft 316 kts 143°
2026-04-14 14:23 37.32001 34.99601 8976 ft 310 kts 143°
2026-04-14 14:23 37.30303 35.01230 8436 ft 304 kts 143°
2026-04-14 14:24 37.28639 35.02824 7982 ft 297 kts 143°
2026-04-14 14:24 37.27008 35.04382 7538 ft 292 kts 144°
2026-04-14 14:24 37.25400 35.05917 7113 ft 288 kts 143°
2026-04-14 14:24 37.23813 35.07429 6695 ft 285 kts 144°
2026-04-14 14:25 37.22247 35.08918 6253 ft 279 kts 144°
2026-04-14 14:25 37.20714 35.10380 5842 ft 275 kts 143°
2026-04-14 14:25 37.19222 35.11806 5444 ft 272 kts 144°
2026-04-14 14:25 37.17727 35.13234 5046 ft 268 kts 144°
2026-04-14 14:26 37.16251 35.14644 4635 ft 265 kts 144°
2026-04-14 14:26 37.14794 35.16035 4395 ft 261 kts 144°
2026-04-14 14:26 37.13403 35.17361 4320 ft 241 kts 144°
2026-04-14 14:26 37.12119 35.18586 4222 ft 223 kts 144°
2026-04-14 14:27 37.10925 35.19722 4135 ft 211 kts 144°
2026-04-14 14:27 37.09751 35.20800 4030 ft 208 kts 151°
2026-04-14 14:27 37.08383 35.21253 3948 ft 204 kts 182°
2026-04-14 14:27 37.07060 35.20797 3690 ft 194 kts 211°
2026-04-14 14:28 37.05932 35.19933 3492 ft 184 kts 212°
2026-04-14 14:28 37.04854 35.19107 3219 ft 180 kts 211°
2026-04-14 14:28 37.03802 35.18302 2974 ft 172 kts 212°
2026-04-14 14:28 37.02823 35.17552 2764 ft 158 kts 212°
2026-04-14 14:29 37.01945 35.16881 2613 ft 142 kts 211°
2026-04-14 14:29 37.01120 35.16250 2451 ft 137 kts 211°
2026-04-14 14:29 37.00308 35.15630 2272 ft 135 kts 211°
2026-04-14 14:29 36.99538 35.15042 2116 ft 125 kts 212°
2026-04-14 14:30 36.98804 35.14482 1948 ft 123 kts 211°
2026-04-14 14:30 36.98078 35.13927 1785 ft 121 kts 212°
2026-04-14 14:30 36.97359 35.13378 1620 ft 120 kts 212°
2026-04-14 14:30 36.96638 35.12828 1455 ft 122 kts 212°
2026-04-14 14:31 36.95912 35.12274 1288 ft 121 kts 212°
2026-04-14 14:31 36.95195 35.11726 1126 ft 121 kts 213°
2026-04-14 14:31 36.94484 35.11176 992 ft 119 kts 212°
2026-04-14 14:31 36.93768 35.10653 782 ft 119 kts 212°
2026-04-14 14:32 36.93061 35.10124 616 ft 118 kts 214°
2026-04-14 14:32 36.92355 35.09572 469 ft 122 kts 213°
2026-04-14 14:32 36.91650 35.09032 294 ft 118 kts 214°
2026-04-14 14:32 36.90944 35.08494 158 ft 119 kts 213°
2026-04-14 14:33 36.90237 35.07955 66 ft 119 kts 213°
2026-04-14 14:33 36.89602 35.07466 39 ft 89 kts 212°
2026-04-14 14:33 36.89206 35.07160 40 ft 46 kts 211°
2026-04-14 14:33 36.89037 35.07020 39 ft 12 kts 231°
2026-04-14 14:34 36.89036 35.07036 39 ft 8 kts 21°
2026-04-14 14:34 36.89087 35.07069 40 ft 9 kts 27°
2026-04-14 14:34 36.89144 35.07108 41 ft 10 kts 32°
2026-04-14 14:35 36.89213 35.07161 40 ft 13 kts 29°
2026-04-14 14:35 36.89293 35.07172 41 ft 12 kts 318°
2026-04-14 14:35 36.89340 35.07079 39 ft 13 kts 302°
2026-04-14 14:35 36.89392 35.06971 42 ft 15 kts 299°
2026-04-14 14:36 36.89451 35.06848 41 ft 17 kts 305°
2026-04-14 14:36 36.89506 35.06739 39 ft 14 kts 301°
2026-04-14 14:36 36.89547 35.06655 39 ft 10 kts 303°
2026-04-14 14:36 36.89613 35.06664 39 ft 12 kts 33°
2026-04-14 14:37 36.89689 35.06724 39 ft 14 kts 30°
2026-04-14 14:37 36.89781 35.06793 39 ft 17 kts 31°
2026-04-14 14:37 36.89887 35.06874 36 ft 16 kts 32°
2026-04-14 14:37 36.89983 35.06947 38 ft 15 kts 32°
2026-04-14 14:38 36.90044 35.06994 38 ft 6 kts 30°
2026-04-14 14:38 36.90063 35.06999 38 ft 1 kts 341°
2026-04-14 14:38 36.90075 35.06982 37 ft 3 kts 312°
2026-04-14 14:38 36.90084 35.06967 38 ft 1 kts 305°
2026-04-14 14:39 36.90087 35.06960 36 ft 0 kts 303°